TimeHST,TemperatureF,Dew PointF,Humidity,Sea Level PressureIn,VisibilityMPH,Wind Direction,Wind SpeedMPH,Gust SpeedMPH,PrecipitationIn,Events,Conditions,WindDirDegrees,DateUTC
12:53 AM,75.9,66.0,71,30.05,10.0,ENE,6.9,-,N/A,,Partly Cloudy,60,2013-10-08 10:53:00
1:53 AM,75.9,66.0,71,30.04,10.0,NE,6.9,-,N/A,,Partly Cloudy,50,2013-10-08 11:53:00
2:53 AM,75.9,66.9,74,30.03,10.0,ENE,9.2,-,N/A,,Scattered Clouds,60,2013-10-08 12:53:00
3:53 AM,73.9,68.0,82,30.02,10.0,East,5.8,-,0.00,,Scattered Clouds,80,2013-10-08 13:53:00
4:53 AM,75.0,66.0,73,30.02,10.0,NE,6.9,-,N/A,,Scattered Clouds,40,2013-10-08 14:53:00
5:53 AM,75.0,66.0,73,30.03,10.0,NE,9.2,-,N/A,,Scattered Clouds,50,2013-10-08 15:53:00
6:53 AM,77.0,66.9,71,30.05,10.0,ENE,11.5,-,N/A,,Scattered Clouds,60,2013-10-08 16:53:00
7:53 AM,79.0,66.9,66,30.06,10.0,NE,13.8,-,N/A,,Mostly Cloudy,50,2013-10-08 17:53:00
8:53 AM,82.0,64.9,56,30.07,10.0,ENE,18.4,-,N/A,,Mostly Cloudy,60,2013-10-08 18:53:00
9:53 AM,82.9,64.9,54,30.07,10.0,ENE,16.1,-,N/A,,Mostly Cloudy,70,2013-10-08 19:53:00
10:53 AM,82.0,66.9,60,30.06,10.0,ENE,18.4,26.5,0.00,,Mostly Cloudy,60,2013-10-08 20:53:00
11:53 AM,84.0,66.9,56,30.05,10.0,NE,18.4,26.5,0.00,,Mostly Cloudy,50,2013-10-08 21:53:00
12:53 PM,79.0,66.0,64,30.04,10.0,East,6.9,21.9,0.00,,Mostly Cloudy,100,2013-10-08 22:53:00
1:53 PM,82.9,64.0,53,30.01,10.0,NE,17.3,27.6,N/A,,Mostly Cloudy,50,2013-10-08 23:53:00
2:53 PM,82.9,66.0,56,30.01,10.0,ENE,16.1,27.6,0.00,,Mostly Cloudy,60,2013-10-09 00:53:00
3:53 PM,81.0,66.0,60,30.01,10.0,NE,17.3,26.5,N/A,,Mostly Cloudy,50,2013-10-09 01:53:00
4:53 PM,77.0,68.0,74,30.01,9.0,NE,15.0,29.9,0.00,Rain,Light Rain,50,2013-10-09 02:53:00
5:53 PM,78.1,66.0,66,30.02,10.0,NE,12.7,-,0.00,,Mostly Cloudy,50,2013-10-09 03:53:00
6:53 PM,78.1,66.9,68,30.04,10.0,ENE,11.5,-,N/A,,Mostly Cloudy,60,2013-10-09 04:53:00
7:53 PM,77.0,66.9,71,30.05,10.0,ENE,9.2,20.7,N/A,,Mostly Cloudy,60,2013-10-09 05:53:00
8:53 PM,75.9,66.9,74,30.06,10.0,NE,10.4,-,N/A,,Mostly Cloudy,50,2013-10-09 06:53:00
9:53 PM,77.0,66.0,69,30.06,10.0,NE,8.1,-,N/A,,Partly Cloudy,50,2013-10-09 07:53:00
10:53 PM,75.9,66.0,71,30.05,10.0,NE,8.1,-,N/A,,Partly Cloudy,40,2013-10-09 08:53:00
11:53 PM,77.0,64.9,66,30.03,10.0,NE,10.4,-,N/A,,Partly Cloudy,50,2013-10-09 09:53:00